Location: Dortmund
(51.5019°N, 7.6520°E)
Time: 02:32:10
(UTC+02:00)

ISS - Pass Details

Date: 22 March 2019
Orbit: 408 x 410 km, 51.6° (Epoch: 21 April)

Event Time Altitude Azimuth Distance (km) Brightness Sun altitude
Rises 21:07:08 0° 236° (SW) 2,329 0.3 -21.7°
Reaches altitude 10° 21:09:15 10° 230° (SW) 1,470 -0.8 -22.0°
Enters shadow 21:10:03 16° 225° (SW) 1,163 -1.4 -22.1°
